FW1608 Weather Reports


time (UTC)temp
C
wind
direction
speed
KPH
gust
KPH
rain 1hr
cm
rain 24hr
cm
rain mn
cm
humidity
%
barometer
mb
20260506184547 6 290 3.2 6.4 0.00 1.22 1.09 93 1012.0
20260506183146 6 305 1.6 6.4 0.00 1.22 1.09 93 1011.9
20260506181543 6 289 3.2 6.4 0.00 1.22 1.09 93 1011.7
20260506180042 7 284 4.8 8.0 0.00 1.63 1.09 93 1011.4
20260506174549 7 282 6.4 9.7 0.00 1.63 1.09 92 1011.3
20260506173143 7 309 4.8 6.4 0.00 1.63 1.09 91 1011.2
20260506171537 7 292 4.8 11.3 0.00 1.63 1.09 90 1011.3
20260506170037 8 307 1.6 8.0 0.00 1.63 1.09 90 1011.0
20260506164537 8 309 3.2 6.4 0.00 1.63 1.09 89 1011.1
20260506163137 8 311 4.8 9.7 0.00 1.63 1.09 87 1011.1
20260506161605 9 303 4.8 8.0 0.00 1.63 1.09 87 1011.0
20260506160054 9 261 3.2 11.3 0.00 1.65 1.09 87 1011.1
20260506154554 9 85 0.0 6.4 0.00 1.65 1.09 88 1011.1
20260506153151 9 94 3.2 9.7 0.00 1.65 1.09 88 1011.1
20260506151548 9 263 4.8 12.9 0.00 1.65 1.09 88 1011.3
20260506150057 10 351 0.0 6.4 0.00 1.65 1.09 88 1011.0
20260506144602 10 150 1.6 9.7 0.00 1.65 1.09 89 1011.1
20260506143144 10 28 1.6 8.0 0.00 1.65 1.09 91 1011.3
20260506141542 9 72 0.0 0.0 0.00 1.65 1.09 91 1011.3
20260506140057 9 72 0.0 0.0 0.00 1.65 1.09 93 1011.3
20260506134544 8 62 0.0 0.0 0.00 1.65 1.09 94 1011.3
20260506133142 8 62 0.0 0.0 0.00 1.65 1.09 95 1011.3
20260506131545 8 61 0.0 9.7 0.00 1.65 1.09 96 1011.3
20260506130107 8 62 1.6 9.7 0.00 1.65 1.09 95 1011.4
20260506124540 10 24 0.0 9.7 0.00 1.65 1.09 97 1011.3
20260506123138 9 37 0.0 6.4 0.00 1.65 1.09 97 1011.2
20260506121559 8 76 0.0 0.0 0.00 1.65 1.09 98 1011.3
20260506120057 8 74 0.0 0.0 0.00 1.65 1.09 97 1011.3
20260506114553 8 71 0.0 9.7 0.00 1.65 1.09 97 1011.3
20260506113153 8 54 3.2 6.4 0.00 1.65 1.09 97 1011.3
20260506111551 8 72 0.0 6.4 0.03 1.65 1.09 97 1011.3
20260506110048 7 69 4.8 14.5 0.08 1.70 1.09 97 1011.3
20260506104555 7 68 1.6 4.8 0.10 1.70 1.09 97 1011.3
20260506103146 7 71 1.6 6.4 0.13 1.70 1.09 96 1011.4
20260506101544 7 63 1.6 6.4 0.10 1.68 1.07 96 1011.2
20260506100058 7 67 0.0 9.7 0.05 1.88 0.99 96 1011.1
20260506094544 8 32 4.8 12.9 0.05 1.85 0.99 95 1010.8
20260506093143 8 35 0.0 9.7 0.05 1.83 0.97 95 1010.8
20260506091544 8 122 0.0 11.3 0.05 1.83 0.97 94 1010.5
20260506090043 8 168 6.4 14.5 0.05 2.11 0.94 94 1010.3
20260506084541 8 161 9.7 12.9 0.03 2.11 0.91 94 1010.1
20260506083140 7 234 1.6 11.3 0.00 2.08 0.89 94 1010.0
20260506081550 7 217 1.6 14.5 0.00 2.08 0.89 95 1010.0
20260506073133 7 173 8.0 16.1 0.00 2.36 0.89 97 1009.4
20260506071555 6 180 4.8 16.1 0.03 2.36 0.89 97 1009.2
20260506061550 7 230 0.0 8.0 0.13 2.41 0.89 98 1008.8
20260506044549 7 264 0.0 0.0 0.15 2.16 0.61 97 1007.9
20260506043141 7 264 0.0 0.0 0.15 2.11 0.53 98 1007.7
20260506041551 7 228 0.0 0.0 0.15 2.03 0.48 98 1007.5
20260506040040 7 228 0.0 0.0 0.23 2.08 0.43 98 1007.4
20260506034552 7 228 0.0 0.0 0.33 2.08 0.43 98 1007.5
20260506033136 7 273 0.0 0.0 0.30 2.03 0.41 97 1007.9
20260506031547 7 272 0.0 6.4 0.23 1.96 0.33 97 1008.0
20260506030036 7 285 1.6 4.8 0.13 2.11 0.20 97 1007.9
20260506024534 7 284 1.6 4.8 0.08 2.03 0.13 97 1008.1
20260506023135 7 284 3.2 4.8 0.05 2.03 0.10 97 1008.1
20260506021553 7 284 1.6 4.8 0.05 2.01 0.08 97 1008.1
20260506020051 7 284 1.6 6.4 0.05 2.31 0.08 97 1008.1
20260506014550 7 327 1.6 4.8 0.00 2.29 0.05 97 1008.4
20260506013147 7 327 0.0 0.0 0.00 2.29 0.05 97 1008.5
20260506011552 7 327 0.0 0.0 0.00 2.29 0.05 97 1008.5
20260506010058 7 327 0.0 3.2 0.00 2.44 0.05 97 1008.7
20260506004544 7 327 1.6 6.4 0.00 2.44 0.05 97 1009.1
20260506003145 7 11 0.0 0.0 0.00 2.44 0.05 97 1009.2
20260506001550 7 11 0.0 0.0 0.00 2.44 0.05 97 1009.5
20260506000043 7 9 0.0 6.4 0.00 2.67 0.05 97 1009.7
20260505234541 7 11 0.0 3.2 0.03 2.67 0.05 97 1010.0
20260505233138 7 12 0.0 3.2 0.03 2.67 0.05 97 1010.1
20260505231540 7 9 4.8 6.4 0.05 2.67 0.05 97 1010.3
20260505230041 7 11 0.0 4.8 0.05 3.10 0.05 97 1010.6
20260505224539 7 9 3.2 6.4 0.03 3.07 0.03 96 1010.7
20260505223134 7 356 0.0 1.6 0.05 3.07 0.03 96 1010.9
20260505221551 8 351 0.0 6.4 0.03 3.05 0.00 96 1010.9
20260505220049 8 298 4.8 8.0 0.03 3.15 3.05 96 1011.2
20260505214559 8 14 0.0 3.2 0.05 3.15 3.05 96 1011.4
20260505213147 8 14 0.0 6.4 0.05 3.15 3.05 96 1011.5
20260505211547 8 259 0.0 9.7 0.05 3.15 3.05 96 1011.5
20260505210047 8 238 1.6 6.4 0.05 3.15 3.05 96 1011.6
20260505204545 8 190 4.8 12.9 0.05 3.12 3.02 96 1011.9
20260505203145 8 294 0.0 4.8 0.03 3.10 3.00 95 1011.8
20260505201550 8 293 0.0 4.8 0.00 3.07 2.97 95 1011.5
20260505200042 8 223 0.0 8.0 0.03 3.07 2.97 94 1011.5
20260505194542 8 211 6.4 12.9 0.05 3.07 2.97 94 1011.2
20260505193142 8 234 3.2 8.0 0.05 3.07 2.97 93 1011.1
20260505191601 8 182 6.4 17.7 0.05 3.07 2.97 93 1011.0
20260505190056 8 166 8.0 19.3 0.05 3.07 2.97 94 1010.8